Clearwater, FL

12:44 AM EST on February 20, 2017 (GMT -0500)
Saint Petersburg-Clearwater International

Weather History for KPIE - May, 2014

Change the Weather History Date:

Saturday, May 17, 2014

  Actual Average Record
Temperature  
Mean Temperature 76 °F -  
Max Temperature 82 °F 86 °F 93 °F (2000)
Min Temperature 69 °F 70 °F 62 °F (1984)
Cooling Degree Days 10    
Growing Degree Days 26 (Base 50)    
Moisture  
Dew Point 52 °F    
Average Humidity 47    
Maximum Humidity 68    
Minimum Humidity 30    
Precipitation  
Precipitation 0.00 in - - ()
Sea Level Pressure  
Sea Level Pressure 30.14 in    
Wind  
Wind Speed 10 mph (NE)    
Max Wind Speed 16 mph    
Max Gust Speed 23 mph    
Visibility 10 miles    
Events      
Averages and records for this station are not official NWS values.
T = Trace of Precipitation, MM = Missing Value Source: NWS Daily Summary

Daily Weather History Graph

Daily Weather History Graph

Search for Another Location

Airport or City:

Trip Planner

Search our weather history database for the weather conditions in past years. The results will help you decide how hot, cold, wet, or windy it might be!

Date:

Astronomy

May. 17, 2014 Rise Set
Actual Time 6:40 AM EDT 8:14 PM EDT
Civil Twilight 6:14 AM EDT 8:40 PM EDT
Nautical Twilight 5:43 AM EDT 9:10 PM EDT
Astronomical Twilight 5:11 AM EDT 9:42 PM EDT
Moon 11:16 PM EDT (5/17) 9:21 AM EDT (5/17)
Length of Visible Light 14h 25m
Length of Day
13h 34m
Waning Gibbous, 89% of the Moon is Illuminated
May 17
Waning Gibbous
May 21
Last Quarter
May 28
New
Jun 5
First Quarter
Jun 13
Full

Hourly Weather History & Observations

Time (EDT) Temp. Dew Point Humidity Pressure Visibility Wind Dir Wind Speed Gust Speed Precip Events Conditions
12:53 AM 70.0 °F 57.9 °F 65% 30.14 in 10.0 mi North 9.2 mph - N/A   Clear
1:53 AM 70.0 °F 59.0 °F 68% 30.13 in 10.0 mi North 9.2 mph - N/A   Clear
2:53 AM 69.1 °F 57.9 °F 68% 30.13 in 10.0 mi North 8.1 mph - N/A   Clear
3:53 AM 69.1 °F 55.0 °F 61% 30.13 in 10.0 mi North 9.2 mph - N/A   Clear
4:53 AM 69.1 °F 54.0 °F 58% 30.14 in 10.0 mi North 9.2 mph - N/A   Clear
5:53 AM 69.1 °F 54.0 °F 58% 30.14 in 10.0 mi North 9.2 mph - N/A   Clear
6:53 AM 70.0 °F 54.0 °F 57% 30.14 in 10.0 mi NNE 9.2 mph - N/A   Clear
7:53 AM 70.0 °F 53.1 °F 55% 30.16 in 10.0 mi NNE 9.2 mph - N/A   Clear
8:53 AM 71.1 °F 52.0 °F 51% 30.17 in 10.0 mi NNE 11.5 mph - N/A   Clear
9:53 AM 73.0 °F 50.0 °F 44% 30.18 in 10.0 mi NNE 12.7 mph - N/A   Clear
10:53 AM 75.0 °F 48.9 °F 40% 30.18 in 10.0 mi NE 10.4 mph - N/A   Clear
11:53 AM 78.1 °F 48.9 °F 36% 30.17 in 10.0 mi NNE 11.5 mph - N/A   Clear
12:53 PM 79.0 °F 48.9 °F 35% 30.16 in 10.0 mi North 9.2 mph - N/A   Clear
1:53 PM 80.1 °F 48.9 °F 34% 30.14 in 10.0 mi NE 9.2 mph - N/A   Clear
2:53 PM 82.0 °F 48.9 °F 31% 30.12 in 10.0 mi NE 8.1 mph - N/A   Clear
3:53 PM 82.0 °F 48.0 °F 30% 30.10 in 10.0 mi NE 8.1 mph - N/A   Clear
4:53 PM 82.9 °F 50.0 °F 32% 30.09 in 10.0 mi ENE 8.1 mph - N/A   Clear
5:53 PM 82.9 °F 51.1 °F 33% 30.08 in 10.0 mi ENE 10.4 mph - N/A   Clear
6:53 PM 81.0 °F 50.0 °F 34% 30.09 in 10.0 mi ENE 8.1 mph - N/A   Clear
7:53 PM 79.0 °F 54.0 °F 42% 30.09 in 10.0 mi ENE 9.2 mph - N/A   Clear
8:53 PM 77.0 °F 53.1 °F 43% 30.12 in 10.0 mi ENE 16.1 mph 23.0 mph N/A   Clear
9:53 PM 75.0 °F 52.0 °F 44% 30.14 in 10.0 mi East 13.8 mph - N/A   Clear
10:53 PM 73.0 °F 53.1 °F 49% 30.17 in 10.0 mi East 11.5 mph - N/A   Clear
11:53 PM 71.1 °F 53.1 °F 53% 30.17 in 10.0 mi East 11.5 mph - N/A   Clear